This is the latest recevied weather packets stored in our database for station/object OK2JCZ-6. If no packets are shown the sender has not sent any weather packets the latest 10 day(s).
| Time | Temp. | Humidity | Pressure | Rain* | Wind** | Luminosity | Snow |
|---|---|---|---|---|---|---|---|
| 1777628978 | 10.56° C | 34% | 1018.8 hPa | 0 mm | - | - | - |
| 1777628077 | 17.22° C | 34% | 1018.3 hPa | 0 mm | - | - | - |
| 1777627177 | 17.22° C | 34% | 1018.3 hPa | 0 mm | - | - | - |
| 1777626577 | 17.22° C | 34% | 1018.3 hPa | 0 mm | - | - | - |
| 1777626277 | 17.22° C | 34% | 1018.3 hPa | 0 mm | - | - | - |
| 1777625977 | 17.22° C | 35% | 1027.7 hPa | 0 mm | - | - | - |
| 1777625377 | 17.22° C | 35% | 1027.7 hPa | 0 mm | - | - | - |
| 1777625077 | 15.56° C | 35% | 1027.7 hPa | 0 mm | - | - | - |
| 1777624178 | 15.56° C | 36% | 1027.8 hPa | 0 mm | - | - | - |
| 1777623577 | 14.44° C | 37% | 1027.9 hPa | 0 mm | - | - | - |
| 1777623277 | 13.89° C | 38% | 1027.9 hPa | 0 mm | - | - | - |
| 1777622977 | 13.89° C | 38% | 1027.9 hPa | 0 mm | - | - | - |
| 1777622677 | 13.89° C | 38% | 1027.9 hPa | 0 mm | - | - | - |
| 1777622077 | 13.89° C | 38% | 1028 hPa | 0 mm | - | - | - |
| 1777621777 | 13.89° C | 38% | 1028 hPa | 0 mm | - | - | - |
| 1777621177 | 13.33° C | 38% | 1027.9 hPa | 0 mm | - | - | - |
| 1777620878 | 13.33° C | 38% | 1028 hPa | 0 mm | - | - | - |
| 1777620577 | 13.33° C | 39% | 1028 hPa | 0 mm | - | - | - |
| 1777620277 | 13.33° C | 39% | 1028 hPa | 0 mm | - | - | - |
| 1777619677 | 15° C | 38% | 1028 hPa | 0 mm | - | - | - |
| 1777619377 | 15° C | 37% | 1027.9 hPa | 0 mm | - | - | - |
| 1777618777 | 15° C | 39% | 1027.8 hPa | 0 mm | - | - | - |
| 1777617877 | 13.89° C | 40% | 1027.8 hPa | 0 mm | - | - | - |
| 1777617577 | 13.89° C | 40% | 1027.8 hPa | 0 mm | - | - | - |
| 1777617277 | 12.78° C | 41% | 1027.8 hPa | 0 mm | - | - | - |
* Rain latest hour (hover to see other rain measurements)
** Current wind speed in m/s (hover to see current wind gust speed)